Regional Weather Roundup
Issued by NWS New Orleans/Baton Rouge, LA

Home | Current Version | Previous Version | Text Only | Print | Product List | Glossary Off
Versions: 1 2 3 4 5 6 7 8 9 10 11 12 13 14 15 16 17 18 19 20 21 22 23 24 25 26 27 28 29 30 31 32 33 34 35 36 37 38 39 40 41 42 43 44 45 46 47 48 49 50

935
ASUS44 KLIX 312105
RWRLIX
NEW ORLEANS REGIONAL WEATHER ROUNDUP
NATIONAL WEATHER SERVICE NEW ORLEANS LA
400 PM CDT THU JUL 31 2014

NOTE: "FAIR" INDICATES FEW OR NO CLOUDS BELOW 12,000 FEET WITH NO
      SIGNIFICANT WEATHER AND/OR OBSTRUCTIONS TO VISIBILITY.
      SKY/WX - SKY CONDITION AND SIGNIFICANT WEATHER.
      TMP - AIR TEMPERATURE.     DP    - DEWPOINT TEMPERATURE.
      RH  - RELATIVE HUMIDITY.   PRES  - PRESSURE.
      HI  - HEAT INDEX.          WCI   - WIND CHILL INDEX.

*  THESE STATIONS ARE NOT NWS OR FAA STATIONS AND ARE NOT UNDER
   NWS QUALITY CONTROL.

LAZ038-040-048-061>063-065>067-069-312200-
SOUTHEAST LOUISIANA

CITY           SKY/WX    TMP DP  RH WIND       PRES   REMARKS
N.O. AUDUBON     N/A     93  69  45 MISG        N/A  HX  98
N.O. INTL ARPT PTSUNNY   89  64  43 NE8       29.99F
N.O. LAKEFRONT MOSUNNY   88  62  41 N6        30.00F
N.O. DOWNTOWN*   N/A     90  63  40 NW3       30.00F
SLIDELL        MOSUNNY   88  61  40 N5        29.99F
BATON ROUGE    MOSUNNY   89  66  46 CALM      29.99F
BOOTHVILLE     PTSUNNY   85  67  54 NE6       30.02F
BELLE CHASSE   PTSUNNY   87  66  49 SE9       29.99F
BOGALUSA*        N/A     87  62  43 N5        30.03S
GALLIANO*      NOT AVBL
NEW ROADS*       N/A     86  66  51 CALM      30.00F
GONZALES*      MOCLDY    87  71  58 CALM      29.99S
HAMMOND*       MOSUNNY   90  61  37 N3        30.02S
HOUMA*         MOSUNNY   88  66  48 SE7       30.00F
PORT FOURCHON* CLEAR     84  66  54 VRB7      30.02F

$$

MSZ070-080>082-312200-
SOUTHERN MISSISSIPPI

CITY           SKY/WX    TMP DP  RH WIND       PRES   REMARKS
MCCOMB         PTSUNNY   83  62  49 CALM      30.03F
GULFPORT       MOSUNNY   89  61  38 S8        29.99F
BILOXI         MOSUNNY   87  64  46 SW10      29.99F
PASCAGOULA     MOSUNNY   88  59  37 VRB5      29.99F
STENNIS ARPT*  MOSUNNY  N/A N/A N/A CALM      29.99F

$$

COASTAL OBSERVATIONS
LAKE AND NEARSHORE STATIONS

STATION/POSITION TIME  TEMP    WIND        PRES    WAVE
                       AIR SEA DIR/SP/G            HT/PER
                 (UTC) (F)     (DEG/KT/KT) (MB)    (FT/S)
PASCAGOULA       2100   85     200/  8/ 12 1015.2
WAVELAND YACHT   2100   83     180/  8/ 11 1015.2
GRAND ISLE       2100   86 87  110/  4/  6 1016.9
SOUTHWEST PASS   2100   91 86  120/  3/  7 1016.5
NEW CANAL        2100   84 84   30/  6/  7 1016.3
SHELL BEACH      2100   85 82   60/  2/  2 1015.9

OFFSHORE STATIONS

STATION/POSITION TIME  TEMP    WIND        PRES    WAVE
                       AIR SEA DIR/SP/G            HT/PER
                 (UTC) (F)     (DEG/KT/KT) (MB)    (FT/S)
64 S DAUPHIN ISL 2006   82 87   10/  6/  8 1016.3

$$




USA.gov is the U.S. government's official web portal to all federal, state and local government web resources and services.